Regional Weather Roundup
Issued by NWS

Home | Current Version | Previous Version | Text Only | Print | Product List | Glossary Off
Versions: 1 2 3 4 5 6 7 8 9 10 11 12 13 14 15 16 17 18 19 20 21 22 23 24 25 26 27 28 29 30 31 32 33 34 35 36 37 38 39 40 41 42 43 44 45 46 47 48 49 50

000
ASUS43 KDMX 290407
RWRIA

WEATHER ROUNDUP FOR IOWA
NATIONAL WEATHER SERVICE DES MOINES IA
1000 PM CST SUN DEC 28 2014

NOTE: "FAIR" INDICATES FEW OR NO CLOUDS BELOW 12,000 FEET WITH NO
SIGNIFICANT WEATHER AND/OR OBSTRUCTIONS TO VISIBILITY.

* - THESE STATIONS ARE NOT NWS STATIONS...THUS NOT UNDER NWS
QUALITY CONTROL.  THEY ALSO DO NOT REPORT WEATHER SUCH
AS PRECIPITATION OR FOG.

IAZ001>003-012>014-020>022-031>034-043>046-290500-
   NORTHWEST IOWA

CITY           SKY/WX    TMP DP  RH WIND       PRES   REMARKS
CARROLL *      CLOUDY    21  19  93 N7        30.22R WCI  13
CHEROKEE *     CLOUDY    19  18  93 NE9       30.24R WCI   9
DENISON *      CLOUDY    21  19  93 NE10      30.19S WCI  10
LE MARS *      LGT SNOW  21  19  93 N10       30.25R WCI  10
ORANGE CITY *  LGT SNOW  19  16  86 E9        30.24R WCI   9
SHELDON *      CLOUDY    19  19 100 NE13      30.24S FOG     WCI   7
SIOUX CITY     CLOUDY    23  17  78 NE9       30.23R WCI  13
SPENCER        CLOUDY    19  15  84 NE10      30.26R WCI   7
STORM LAKE *   FLURRIES  18  16  93 NE15      30.22R WCI   3
$$

IAZ055>058-069>071-079>083-090>094-290500-
   SOUTHWEST IOWA

CITY           SKY/WX    TMP DP  RH WIND       PRES   REMARKS
ATLANTIC *     CLOUDY    28  25  86 NE7       30.19R WCI  21
AUDUBON *      CLEAR     25  18  74 NE5       30.20R WCI  19
CLARINDA *     CLOUDY    30  28  93 N5        30.20S WCI  25
COUNCIL BLFS * CLOUDY    27  25  93 NE5       30.16R WCI  21
CRESTON *      CLOUDY    28  27  93 NE7       30.18S WCI  21
HARLAN  *      CLOUDY    25  27 100 NE9       30.22S WCI  15
LAMONI         CLOUDY    31  19  61 E3        30.18S
RED OAK *      CLOUDY    30  27  86 NE5       30.19R WCI  25
SHENANDOAH *   CLOUDY    30  28  93 NE7       30.19R WCI  23
$$

IAZ047>049-059>061-072>074-084-290500-
   CENTRAL IOWA

CITY           SKY/WX    TMP DP  RH WIND       PRES   REMARKS
AMES           CLOUDY    27  21  78 NE6       30.23R WCI  20
ANKENY *       CLOUDY    28  25  86 N5        30.22R WCI  23
CHARITON *     CLOUDY    28  25  86 CALM      30.20R
DES MOINES     CLOUDY    30  22  72 NE7       30.21R WCI  23
GRINNELL*      CLOUDY    28  23  80 E5        30.22R WCI  23
KNOXVILLE *    CLOUDY    28  21  74 E3        30.20R
MARSHALLTOWN   CLOUDY    26  22  84 NE10      30.21R WCI  16
PELLA *        CLOUDY    30  21  69 E5        30.23R WCI  25
PERRY *        CLOUDY    27  23  86 N8        30.21S WCI  18
$$

IAZ004>006-015-016-023>025-035-036-290500-
   NORTH CENTRAL IOWA

CITY           SKY/WX    TMP DP  RH WIND       PRES   REMARKS
ALGONA *       CLOUDY    16  14  93 N10       30.26S WCI   3
CLARION *      CLOUDY    19  18  93 NE10      30.24R WCI   8
ESTHERVILLE    CLOUDY    17  15  92 N9        30.26R FOG     WCI   6
FORT DODGE *   CLOUDY    19  14  79 NE7       30.24S WCI  10
MASON CITY     MOCLDY    12   9  87 N5        30.26R WCI   4
FOREST CITY *  MOCLDY    19  14  79 NE8       30.25R WCI   9
IOWA FALLS *   CLOUDY    21  18  86 NE8       30.23S WCI  12
$$

IAZ007>011-017>019-026>030-037>042-050>054-066-290500-
   NORTHEAST IOWA

CITY           SKY/WX    TMP DP  RH WIND       PRES   REMARKS
CEDAR RAPIDS   CLOUDY    25  18  74 E5        30.22S WCI  19
CHARLES CITY * PTCLDY    19  16  86 NE12      30.25S WCI   7
CLINTON *      CLEAR     21  18  86 N6        30.26S WCI  14
DECORAH *      CLEAR     19  16  86 NE6       30.24S WCI  11
DUBUQUE        PTCLDY    20  16  84 CALM      30.23R
MONTICELLO *   CLEAR     23  21  93 CALM      30.24S
OELWEIN *      PTCLDY    23  19  86 NE8       30.24R WCI  14
WATERLOO       CLOUDY    22  19  89 CALM      30.24R
$$

IAZ064-065-067-068-078-290500-
   EAST CENTRAL IOWA

CITY           SKY/WX    TMP DP  RH WIND       PRES   REMARKS
DAVENPORT      PTCLDY    24  17  74 NE3       30.24R
IOWA CITY      MOCLDY    26  19  74 N3        30.24F
MT. PLEASANT * PTCLDY    25  19  80 E5        30.23R WCI  19
MUSCATINE *    CLEAR     25  21  86 CALM      30.25S
QUAD CITIES    PTCLDY    23  18  81 CALM      30.24R
$$

IAZ062-063-075>077-085>089-095>099-290500-
   SOUTHEAST IOWA

CITY           SKY/WX    TMP DP  RH WIND       PRES   REMARKS
BURLINGTON     PTCLDY    27  22  81 CALM      30.22S
FAIRFIELD *    MOCLDY    27  18  69 E6        30.22R WCI  20
FORT MADISON * CLEAR     27  21  80 CALM      30.23R
KEOKUK *       CLEAR     25  19  80 CALM      30.22R
OSKALOOSA *    MOCLDY    27  21  80 E5        30.22R WCI  21
CENTERVILLE *  MOCLDY    28  23  80 S3        30.21R
OTTUMWA        CLOUDY    28  21  75 E6        30.21R WCI  22
WASHINGTON *   PTCLDY    25  23  93 E6        30.23R WCI  18
$$

ABBREVIATIONS USED IN REMARKS
   TC - TEMPERATURES IN CELSIUS
  WCI - WIND CHILL INDEX
   HX - HEAT INDEX
  VSB - VISIBILITY
$$




USA.gov is the U.S. government's official web portal to all federal, state and local government web resources and services.